(167008) = 2003 PT12

Discovered at Socorro on 2003-08-01 by LINEAR.

Orbit

Orbit type: Phocaea

Note: WebGL enabled browser required.

epoch2024-03-31.0
epoch JD2460400.5
perihelion date2023-03-11.86812
perihelion JD2460015.36812
argument of perihelion (°)94.91778
ascending node (°)325.72230
inclination (°)21.31803
eccentricity0.2458337
perihelion distance (AU)1.8363647
Tisserand w.r.t. Jupiter3.4
ΔV w.r.t. Earth (km/sec)10.6
semimajor axis (AU)2.4349600
mean anomaly (°)99.90232
mean daily motion (°/day)0.25939770
aphelion distance (AU)3.034
period (years)3.8
P-vector [x]0.45189989
P-vector [y]0.60387783
P-vector [z]0.65659581
Q-vector [x]-0.86825342
Q-vector [y]0.46667991
Q-vector [z]0.16836229
absolute magnitude16.14
phase slope0.15
uncertainty0
referenceMPEC 2024-F50
observations used661
oppositions11
arc length (days)8962
first opposition used1999
last opposition used2024
residual rms (arc-secs)0.61
perturbers coarse indicatorM-v
perturbers precise indicator003Ek
first observation date used1999-09-05.0
last observation date used2024-03-19.0
computer nameMPCLINUX
JD of orbit computation2456937.215531
perihelion JD uncertainty (days)5.1807E-05
argument of perihelion uncertainty (°)1.8659E-05
ascending node uncertainty (°)1.1049E-05
inclination uncertainty (°)5.6762E-06
eccentricity uncertainty 5.4091E-08
perihelion distance uncertainty (AU)1.2814E-07
Minimum Orbit Intersection Distances (in AU)
for orbit epoch: 2460400.5, reference: E2024-G51
Mercury1.54829
Venus1.19593
Earth0.98272
Mars0.45894
Jupiter2.54703
Saturn6.96318
Uranus15.8886
Neptune27.636

Observations

675 total observations over interval: 1999 09 05.25935 – 2024 03 19.421360
These data are available for download (format description).

Date (UT) J2000 RA J2000 Dec Magn Location Ref
1999 09 05.25935 20 58 24.40 -18 16 23.9 19.4 V 691 – Steward Observatory, Kitt Peak-Spacewatch MPS 182603
1999 09 05.28153 20 58 22.99 -18 16 15.9 19.6 V 691 – Steward Observatory, Kitt Peak-Spacewatch MPS 182603
1999 09 05.30353 20 58 21.57 -18 16 07.8 19.8 V 691 – Steward Observatory, Kitt Peak-Spacewatch MPS 182603
1999 10 06.11727 20 42 44.17 -14 38 26.5 20.0   704 – Lincoln Laboratory ETS, New Mexico MPS 182603
1999 10 06.13040 20 42 44.16 -14 38 20.2 19.6   704 – Lincoln Laboratory ETS, New Mexico MPS 182603
1999 10 06.14385 20 42 44.08 -14 38 13.8 20.1   704 – Lincoln Laboratory ETS, New Mexico MPS 182603
1999 10 06.15698 20 42 44.15 -14 38 08.4 19.7   704 – Lincoln Laboratory ETS, New Mexico MPS 182603
2001 01 26.38056 11 12 24.89 +01 11 21.5 19.2   704 – Lincoln Laboratory ETS, New Mexico MPS 182603
2001 01 26.39555 11 12 24.14 +01 11 16.0 19.9   704 – Lincoln Laboratory ETS, New Mexico MPS 182603
2001 01 26.42566 11 12 22.69 +01 11 04.1 19.9   704 – Lincoln Laboratory ETS, New Mexico MPS 182603
2001 01 26.44067 11 12 21.96 +01 10 59.1 19.9   704 – Lincoln Laboratory ETS, New Mexico MPS 182603
2001 02 19.21340 10 46 16.16 -00 43 05.0 18.6 R 699 – Lowell Observatory-LONEOS MPS 182603
2001 02 19.25238 10 46 13.12 -00 43 13.6   699 – Lowell Observatory-LONEOS MPS 182603
2001 02 19.29156 10 46 09.85 -00 43 19.0   699 – Lowell Observatory-LONEOS MPS 182603
2001 02 19.33086 10 46 06.74 -00 43 25.4   699 – Lowell Observatory-LONEOS MPS 182603
2003 08 01.35202 23 25 33.19 +02 03 28.9 19.8   704 – Lincoln Laboratory ETS, New Mexico MPS 180972
2003 08 01.36246 23 25 32.99 +02 03 35.2 20.3   704 – Lincoln Laboratory ETS, New Mexico MPS 180972
2003 08 01.37281 23 25 32.62 +02 03 42.3 19.9   704 – Lincoln Laboratory ETS, New Mexico MPS 180972
2003 08 01.38323 23 25 32.35 +02 03 47.5 20.0   704 – Lincoln Laboratory ETS, New Mexico MPS 180972
2003 08 23.28514 23 07 14.61 +05 28 21.2 18.8   644 – Palomar Mountain/NEAT MPS 180972
2003 08 23.35139 23 07 09.82 +05 28 53.6 18.3   644 – Palomar Mountain/NEAT MPS 180972
2003 08 23.42285 23 07 04.65 +05 29 28.3 18.7   644 – Palomar Mountain/NEAT MPS 180972
2003 09 03.30344 22 53 10.77 +06 48 39.6 18.3   704 – Lincoln Laboratory ETS, New Mexico MPS 180973
2003 09 03.31555 22 53 09.79 +06 48 44.5 18.6   704 – Lincoln Laboratory ETS, New Mexico MPS 180973
2003 09 03.32752 22 53 08.75 +06 48 48.9 18.6   704 – Lincoln Laboratory ETS, New Mexico MPS 180973
2003 09 03.33962 22 53 07.72 +06 48 54.5 18.6   704 – Lincoln Laboratory ETS, New Mexico MPS 180973
2003 09 18.11380 22 32 55.63 +08 04 56.0 18.4 R 699 – Lowell Observatory-LONEOS MPS 180973
2003 09 18.13050 22 32 54.32 +08 04 57.6   699 – Lowell Observatory-LONEOS MPS 180973
2003 09 18.14722 22 32 53.00 +08 05 01.6   699 – Lowell Observatory-LONEOS MPS 180973
2003 09 18.16377 22 32 51.60 +08 05 05.1   699 – Lowell Observatory-LONEOS MPS 180973
2003 09 20.23655 22 30 10.33 +08 12 53.5 19.2   704 – Lincoln Laboratory ETS, New Mexico MPS 180973
2003 09 20.24913 22 30 09.33 +08 12 56.4 19.2   704 – Lincoln Laboratory ETS, New Mexico MPS 180973
2003 09 20.26145 22 30 08.38 +08 12 59.5 19.6   704 – Lincoln Laboratory ETS, New Mexico MPS 180973
2003 09 20.27377 22 30 07.33 +08 13 03.3 19.3   704 – Lincoln Laboratory ETS, New Mexico MPS 180973
2003 09 20.28594 22 30 06.55 +08 13 05.2 19.5   704 – Lincoln Laboratory ETS, New Mexico MPS 180973
2003 09 30.15508 22 18 42.40 +08 42 18.3 17.5 R 699 – Lowell Observatory-LONEOS MPS 180973
2003 09 30.17369 22 18 41.27 +08 42 21.3   699 – Lowell Observatory-LONEOS MPS 180973
2003 09 30.19213 22 18 40.03 +08 42 24.5   699 – Lowell Observatory-LONEOS MPS 180973
2003 09 30.21046 22 18 38.89 +08 42 26.8   699 – Lowell Observatory-LONEOS MPS 180973
2007 09 05.46587 01 25 34.68 +35 54 45.3 19.2 V G96 – Mt. Lemmon Survey MPS 214409
2007 09 05.47620 01 25 34.50 +35 54 57.9 19.3 V G96 – Mt. Lemmon Survey MPS 214409
2007 09 05.48134 01 25 34.42 +35 55 03.9 19.3 V G96 – Mt. Lemmon Survey MPS 214409
2007 09 19.25719 01 18 02.08 +40 17 40.8 18.3 V 703 – Catalina Sky Survey MPS 216122
2007 09 19.26233 01 18 01.76 +40 17 46.5 18.4 V 703 – Catalina Sky Survey MPS 216122
2007 09 19.26745 01 18 01.44 +40 17 51.8 18.7 V 703 – Catalina Sky Survey MPS 216122
2007 09 19.27257 01 18 01.15 +40 17 57.5 18.4 V 703 – Catalina Sky Survey MPS 216122
2007 10 19.89642 00 37 03.79 +45 43 09.5 17.9 R A24 – New Millennium Observatory, Mozzate MPS 222462
2007 10 20.88839 00 35 34.65 +45 45 15.5 18.0 R A24 – New Millennium Observatory, Mozzate MPS 224529
2007 10 20.88940 00 35 34.57 +45 45 15.2 17.9 R A24 – New Millennium Observatory, Mozzate MPS 224529
2007 10 20.89737 00 35 33.83 +45 45 16.4 18.2 R A24 – New Millennium Observatory, Mozzate MPS 224529
2007 10 20.90635 00 35 33.01 +45 45 17.3 18.1 R A24 – New Millennium Observatory, Mozzate MPS 224529
2007 10 20.91433 00 35 32.27 +45 45 18.2 17.8 R A24 – New Millennium Observatory, Mozzate MPS 224529
2007 10 20.91534 00 35 32.21 +45 45 18.3 17.7 R A24 – New Millennium Observatory, Mozzate MPS 224529
2007 10 21.89916 00 34 05.02 +45 46 50.3 17.9 R A24 – New Millennium Observatory, Mozzate MPS 224529
2007 10 21.90016 00 34 04.95 +45 46 50.0 17.9 R A24 – New Millennium Observatory, Mozzate MPS 224529
2007 10 21.90822 00 34 04.21 +45 46 51.0 18.2 R A24 – New Millennium Observatory, Mozzate MPS 224530
2007 10 21.91728 00 34 03.39 +45 46 51.5 18.0 R A24 – New Millennium Observatory, Mozzate MPS 224530
2007 10 21.92535 00 34 02.61 +45 46 52.1 17.6 R A24 – New Millennium Observatory, Mozzate MPS 224530
2007 10 21.92635 00 34 02.54 +45 46 52.1 17.8 R A24 – New Millennium Observatory, Mozzate MPS 224530
2007 11 03.18931 00 18 30.85 +45 25 45.0 18.6   704 – Lincoln Laboratory ETS, New Mexico MPS 226627
2007 11 03.20111 00 18 30.06 +45 25 42.1 19.0   704 – Lincoln Laboratory ETS, New Mexico MPS 226627
2007 11 03.21309 00 18 29.29 +45 25 39.2 18.9   704 – Lincoln Laboratory ETS, New Mexico MPS 226627
2007 11 03.22527 00 18 28.60 +45 25 35.1 18.7   704 – Lincoln Laboratory ETS, New Mexico MPS 226627
2007 11 03.23705 00 18 27.71 +45 25 32.0 18.9   704 – Lincoln Laboratory ETS, New Mexico MPS 226627
2011 08 07.595441 03 35 00.09 +38 55 17.1   568 – Maunakea MPS 903247
2011 08 07.607153 03 35 01.75 +38 55 29.5   568 – Maunakea MPS 903247
2011 08 07.618461 03 35 03.37 +38 55 41.0   568 – Maunakea MPS 903247
2011 08 07.628431 03 35 04.77 +38 55 51.3   568 – Maunakea MPS 903247
2011 08 07.629786 03 35 04.97 +38 55 52.6   568 – Maunakea MPS 903247
2011 11 10.60713 06 51 31.096 +58 18 11.07 18.9 i F51 – Pan-STARRS 1, Haleakala MPS 400851
2011 11 10.61980 06 51 31.391 +58 18 16.83 18.8 i F51 – Pan-STARRS 1, Haleakala MPS 400851
2011 12 09.56335 06 33 42.947 +60 07 10.03 18.3 z F51 – Pan-STARRS 1, Haleakala MPS 404151
2011 12 09.57120 06 33 42.150 +60 07 08.85 18.1 z F51 – Pan-STARRS 1, Haleakala MPS 404151
2012 01 10.40468 05 43 07.512 +53 59 54.20 18.2 y F51 – Pan-STARRS 1, Haleakala MPS 407417
2012 01 10.41227 05 43 07.026 +53 59 45.21 17.9 y F51 – Pan-STARRS 1, Haleakala MPS 407417
2012 01 11.32395 05 42 15.40 +53 42 08.2 18.3 V G96 – Mt. Lemmon Survey MPS 407417
2012 01 11.32972 05 42 15.04 +53 42 01.2 17.8 V G96 – Mt. Lemmon Survey MPS 407417
2012 01 11.33548 05 42 14.72 +53 41 54.5 18.0 V G96 – Mt. Lemmon Survey MPS 407417
2012 01 13.24382 05 40 37.42 +53 04 26.6 18.7   704 – Lincoln Laboratory ETS, New Mexico MPS 408521
2012 01 13.25734 05 40 36.66 +53 04 09.7 18.7   704 – Lincoln Laboratory ETS, New Mexico MPS 408521
2012 01 13.27072 05 40 36.04 +53 03 54.7 19.2   704 – Lincoln Laboratory ETS, New Mexico MPS 408521
2012 02 27.25801 05 56 47.394 +38 23 52.11 19.8 i F51 – Pan-STARRS 1, Haleakala MPS 415727
2012 02 27.27142 05 56 48.287 +38 23 38.65 20.0 i F51 – Pan-STARRS 1, Haleakala MPS 415727
2012 05 09.26041 07 50 55.490 +22 57 25.38 20.6 w F51 – Pan-STARRS 1, Haleakala MPS 423888
2012 05 09.27145 07 50 56.626 +22 57 17.97 20.7 w F51 – Pan-STARRS 1, Haleakala MPS 423888
2012 05 09.27696 07 50 57.207 +22 57 13.92 20.5 w F51 – Pan-STARRS 1, Haleakala MPS 423888
2014 06 24.48796 20 47 06.989 -36 42 41.54 20.1 w F51 – Pan-STARRS 1, Haleakala MPS 520889
2014 06 24.49806 20 47 06.484 -36 42 42.64 20.0 w F51 – Pan-STARRS 1, Haleakala MPS 520889
